• In Deutschland
  • Länderverzeichnis
  • Für 7 Tage
  • Wassertemperatur
  • Satellitenkarten
  • Wetterkarte
  • Widgets
  • user-avatar
    Anmelden

    Stündliche Wetter Sölden

    Heute, 15 November, Donnerstag

    Zeit Temperatur Niederschläge Wind Luftdruck Luftfeuchtigkeit
    00:00 -1°C° 0 mm 1 m/S 585 mmHg 61%
    01:00 -1°C° 0 mm 1 m/S 585 mmHg 60%
    02:00 -1°C° 0 mm 1 m/S 585 mmHg 59%
    03:00 -2°C° 0 mm 1 m/S 585 mmHg 58%
    04:00 -2°C° 0 mm 1 m/S 585 mmHg 57%
    05:00 -2°C° 0 mm 1 m/S 584 mmHg 56%
    06:00 -2°C° 0 mm 1 m/S 584 mmHg 55%
    07:00 -2°C° 0 mm 1 m/S 584 mmHg 55%
    08:00 0°C° 0 mm 1 m/S 585 mmHg 52%
    09:00 +3°C° 0 mm 1 m/S 586 mmHg 50%
    10:00 +4°C° 0 mm 0 m/S 587 mmHg 48%
    11:00 +4°C° 0 mm 0 m/S 588 mmHg 47%
    12:00 +6°C° 0 mm 1 m/S 588 mmHg 47%
    13:00 +7°C° 0 mm 1 m/S 588 mmHg 47%
    14:00 +6°C° 0 mm 1 m/S 587 mmHg 53%
    15:00 +3°C° 0 mm 0 m/S 586 mmHg 59%
    16:00 +2°C° 0 mm 0 m/S 585 mmHg 65%
    17:00 +1°C° 0 mm 0 m/S 585 mmHg 67%
    18:00 +1°C° 0 mm 1 m/S 585 mmHg 69%
    19:00 0°C° 0 mm 1 m/S 584 mmHg 70%
    20:00 0°C° 0 mm 1 m/S 584 mmHg 69%
    21:00 0°C° 0 mm 1 m/S 584 mmHg 68%
    22:00 -1°C° 0 mm 1 m/S 584 mmHg 66%
    23:00 -1°C° 0 mm 1 m/S 584 mmHg 65%

    Morgen, 16 November, Freitag

    Zeit Temperatur Niederschläge Wind Luftdruck Luftfeuchtigkeit
    00:00 -1°C° 0 mm 1 m/S 584 mmHg 64%
    01:00 -1°C° 0 mm 1 m/S 584 mmHg 63%
    02:00 -1°C° 0 mm 1 m/S 584 mmHg 62%
    03:00 -2°C° 0 mm 1 m/S 584 mmHg 62%
    04:00 -3°C° 0 mm 0 m/S 584 mmHg 61%
    05:00 -2°C° 0 mm 1 m/S 584 mmHg 61%
    06:00 -2°C° 0 mm 1 m/S 584 mmHg 60%
    07:00 -3°C° 0 mm 1 m/S 584 mmHg 59%
    08:00 -1°C° 0 mm 1 m/S 585 mmHg 57%
    09:00 +1°C° 0 mm 1 m/S 586 mmHg 55%
    10:00 +2°C° 0 mm 1 m/S 586 mmHg 54%
    11:00 +3°C° 0 mm 1 m/S 586 mmHg 54%
    12:00 +2°C° 0 mm 2 m/S 586 mmHg 54%
    13:00 +2°C° 0 mm 2 m/S 586 mmHg 55%
    14:00 +1°C° 0 mm 2 m/S 586 mmHg 61%
    15:00 +1°C° 0 mm 1 m/S 585 mmHg 67%
    16:00 0°C° 0 mm 1 m/S 585 mmHg 72%
    17:00 -1°C° 0 mm 1 m/S 585 mmHg 77%
    18:00 -2°C° 0 mm 1 m/S 584 mmHg 82%
    19:00 -3°C° 0 mm 1 m/S 584 mmHg 87%
    20:00 -3°C° 0 mm 1 m/S 584 mmHg 88%
    21:00 -3°C° 0 mm 1 m/S 585 mmHg 89%
    22:00 -3°C° 0 mm 1 m/S 585 mmHg 90%
    23:00 -4°C° 0 mm 1 m/S 585 mmHg 90%

    übermorgen, 17 November, Samstag

    Zeit Temperatur Niederschläge Wind Luftdruck Luftfeuchtigkeit
    00:00 -4°C° 0 mm 1 m/S 584 mmHg 90%
    01:00 -4°C° 0 mm 1 m/S 584 mmHg 90%
    02:00 -4°C° 0 mm 1 m/S 584 mmHg 90%
    03:00 -6°C° 0 mm 1 m/S 584 mmHg 90%
    04:00 -6°C° 0 mm 1 m/S 583 mmHg 90%
    05:00 -6°C° 0 mm 1 m/S 583 mmHg 89%
    06:00 -7°C° 0 mm 1 m/S 583 mmHg 88%
    07:00 -7°C° 0 mm 1 m/S 583 mmHg 87%
    08:00 -4°C° 0 mm 1 m/S 584 mmHg 79%
    09:00 -5°C° 0 mm 2 m/S 584 mmHg 71%
    10:00 -4°C° 0 mm 2 m/S 585 mmHg 63%
    11:00 -1°C° 0 mm 1 m/S 585 mmHg 57%
    12:00 0°C° 0 mm 1 m/S 585 mmHg 51%
    13:00 +1°C° 0 mm 1 m/S 585 mmHg 45%
    14:00 0°C° 0 mm 1 m/S 585 mmHg 48%
    15:00 -1°C° 0 mm 1 m/S 584 mmHg 51%
    16:00 -2°C° 0 mm 1 m/S 583 mmHg 54%
    17:00 -3°C° 0 mm 1 m/S 583 mmHg 56%
    18:00 -4°C° 0 mm 1 m/S 582 mmHg 59%
    19:00 -7°C° 0 mm 1 m/S 582 mmHg 61%
    20:00 -7°C° 0 mm 1 m/S 582 mmHg 62%
    21:00 -7°C° 0 mm 1 m/S 582 mmHg 62%
    22:00 -7°C° 0 mm 1 m/S 582 mmHg 62%
    23:00 -7°C° 0 mm 1 m/S 582 mmHg 64%

    18 November, Sonntag

    Zeit Temperatur Niederschläge Wind Luftdruck Luftfeuchtigkeit
    00:00 -8°C° 0 mm 1 m/S 582 mmHg 65%
    01:00 -8°C° 0 mm 1 m/S 581 mmHg 67%
    02:00 -8°C° 0 mm 1 m/S 581 mmHg 66%
    03:00 -8°C° 0 mm 1 m/S 581 mmHg 66%
    04:00 -9°C° 0 mm 2 m/S 581 mmHg 66%
    05:00 -9°C° 0 mm 2 m/S 580 mmHg 65%
    06:00 -10°C° 0 mm 2 m/S 580 mmHg 63%
    07:00 -9°C° 0 mm 1 m/S 580 mmHg 62%
    08:00 -7°C° 0 mm 1 m/S 581 mmHg 56%
    09:00 -4°C° 0 mm 1 m/S 582 mmHg 50%
    10:00 -2°C° 0 mm 1 m/S 582 mmHg 44%
    11:00 -1°C° 0 mm 1 m/S 582 mmHg 41%
    12:00 0°C° 0 mm 1 m/S 582 mmHg 38%
    13:00 +1°C° 0 mm 1 m/S 582 mmHg 36%
    14:00 0°C° 0 mm 1 m/S 581 mmHg 39%
    15:00 -2°C° 0 mm 1 m/S 580 mmHg 43%
    16:00 -3°C° 0 mm 1 m/S 579 mmHg 46%
    17:00 -4°C° 0 mm 1 m/S 579 mmHg 46%
    18:00 -6°C° 0 mm 1 m/S 578 mmHg 46%
    19:00 -7°C° 0 mm 1 m/S 577 mmHg 47%
    20:00 -7°C° 0 mm 1 m/S 577 mmHg 44%
    21:00 -7°C° 0 mm 1 m/S 577 mmHg 41%
    22:00 -7°C° 0 mm 1 m/S 577 mmHg 39%
    23:00 -7°C° 0 mm 1 m/S 576 mmHg 40%

    19 November, Montag

    Zeit Temperatur Niederschläge Wind Luftdruck Luftfeuchtigkeit
    00:00 -7°C° 0 mm 1 m/S 576 mmHg 40%
    01:00 -8°C° 0 mm 2 m/S 576 mmHg 41%
    02:00 -8°C° 0 mm 2 m/S 575 mmHg 44%
    03:00 -9°C° 0 mm 2 m/S 575 mmHg 46%
    04:00 -9°C° 0 mm 2 m/S 575 mmHg 49%
    05:00 -9°C° 0 mm 2 m/S 574 mmHg 51%
    06:00 -9°C° 0 mm 2 m/S 574 mmHg 53%
    07:00 -10°C° 0 mm 2 m/S 574 mmHg 56%
    08:00 -7°C° 0 mm 1 m/S 574 mmHg 53%
    09:00 -6°C° 0 mm 1 m/S 575 mmHg 50%
    10:00 -3°C° 0 mm 1 m/S 576 mmHg 48%
    11:00 -3°C° 0 mm 1 m/S 575 mmHg 47%
    12:00 -3°C° 0 mm 1 m/S 575 mmHg 47%
    13:00 -4°C° 0 mm 2 m/S 575 mmHg 46%
    14:00 -5°C° 0 mm 2 m/S 574 mmHg 52%
    15:00 -6°C° 0 mm 2 m/S 574 mmHg 58%
    16:00 -6°C° 0 mm 1 m/S 573 mmHg 64%
    17:00 -7°C° 0.1 mm 1 m/S 573 mmHg 70%
    18:00 -8°C° 0.1 mm 1 m/S 573 mmHg 76%
    19:00 -9°C° 0.1 mm 1 m/S 572 mmHg 82%
    20:00 -9°C° 0.1 mm 1 m/S 572 mmHg 82%
    21:00 -9°C° 0.1 mm 1 m/S 572 mmHg 82%
    22:00 -9°C° 0.1 mm 1 m/S 572 mmHg 83%
    23:00 -9°C° 0 mm 1 m/S 572 mmHg 83%

    20 November, Dienstag

    Zeit Temperatur Niederschläge Wind Luftdruck Luftfeuchtigkeit
    00:00 -10°C° 0 mm 1 m/S 572 mmHg 83%
    01:00 -10°C° 0 mm 1 m/S 571 mmHg 83%
    02:00 -10°C° 0 mm 1 m/S 571 mmHg 83%
    03:00 -11°C° 0 mm 1 m/S 570 mmHg 82%
    04:00 -11°C° 0 mm 1 m/S 570 mmHg 82%
    05:00 -11°C° 0 mm 1 m/S 570 mmHg 80%
    06:00 -11°C° 0 mm 1 m/S 569 mmHg 79%
    07:00 -11°C° 0 mm 1 m/S 569 mmHg 77%
    08:00 -10°C° 0 mm 1 m/S 570 mmHg 70%
    09:00 -8°C° 0 mm 1 m/S 570 mmHg 62%
    10:00 -7°C° 0 mm 1 m/S 571 mmHg 55%
    11:00 -6°C° 0 mm 1 m/S 571 mmHg 53%
    12:00 -4°C° 0 mm 1 m/S 571 mmHg 51%
    13:00 -3°C° 0 mm 1 m/S 571 mmHg 49%
    14:00 -3°C° 0 mm 1 m/S 571 mmHg 54%
    15:00 -4°C° 0 mm 1 m/S 570 mmHg 59%
    16:00 -6°C° 0 mm 1 m/S 570 mmHg 64%
    17:00 -7°C° 0 mm 1 m/S 570 mmHg 69%
    18:00 -8°C° 0 mm 1 m/S 570 mmHg 73%
    19:00 -9°C° 0 mm 1 m/S 569 mmHg 78%
    20:00 -9°C° 0 mm 1 m/S 569 mmHg 79%
    21:00 -9°C° 0 mm 1 m/S 570 mmHg 79%
    22:00 -9°C° 0 mm 1 m/S 570 mmHg 80%
    23:00 -9°C° 0 mm 1 m/S 570 mmHg 81%
    Mehr zeigen